Weather History for Kalaeloa, HI

Change the Weather History Date:

Tuesday, November 20, 2012

  Actual Average (PHNL) Record (PHNL)
Temperature  
Mean Temperature 76 °F 77 °F  
Max Temperature 81 °F 84 °F 87 °F (1991)
Min Temperature 70 °F 71 °F 63 °F (1949)
Degree Days  
Heating Degree Days 0 0  
Month to date heating degree days 0  
Since 1 July heating degree days 0  
Cooling Degree Days 10 12  
Month to date cooling degree days 263  
Year to date cooling degree days 4209  
Growing Degree Days 26 (Base 50)    
Moisture  
Dew Point 63 °F    
Average Humidity 67    
Maximum Humidity 78    
Minimum Humidity 52    
Precipitation  
Precipitation 0.00 in 0.07 in 0.73 in (1965)
Month to date precipitation 1.66  
Year to date precipitation 13.10  
Snow  
Snow 0.00 in - - ()
Month to date snowfall  
Since 1 July snowfall  
Since 1 September snowfall  
Snow Depth -    
Sea Level Pressure  
Sea Level Pressure 30.06 in    
Wind  
Wind Speed 2 mph (East)    
Max Wind Speed 9 mph    
Max Gust Speed 17 mph    
Visibility 10 miles    
Events      
T = Trace of Precipitation, MM = Missing Value Source: NWS Daily Summary

Daily Weather History Graph

Daily Weather History Graph

Search for Another Location

Airport:

Trip Planner

Search our weather history database for the weather conditions in past years. The results will help you decide how hot, cold, wet, or windy it might be!

Date:

Astronomy

Nov. 20, 2012 Rise Set
Actual Time 6:46 AM HST 5:49 PM HST
Civil Twilight 6:23 AM HST 6:13 PM HST
Nautical Twilight 5:55 AM HST 6:40 PM HST
Astronomical Twilight 5:29 AM HST 7:06 PM HST
Moon 12:53 PM HST (11/20) 12:07 AM HST (11/20)
Length of Visible Light 11h 49m
Length of Day
11h 02m
First Quarter, 53% of the Moon is Illuminated
Nov 20
First Quarter
Nov 28
Full
Dec 6
Last Quarter
Dec 12
New
Dec 19
First Quarter

Hourly Weather History & Observations

Time (HST) Temp. Heat Index Dew Point Humidity Pressure Visibility Wind Dir Wind Speed Gust Speed Precip Events Conditions
12:53 AM 71.1 °F - 63.0 °F 75% 30.09 in 10.0 mi Calm Calm - N/A   Clear
1:53 AM 71.1 °F - 63.0 °F 75% 30.09 in 10.0 mi Calm Calm - N/A   Clear
2:53 AM 71.1 °F - 63.0 °F 75% 30.07 in 10.0 mi Calm Calm - N/A   Clear
3:53 AM 71.1 °F - 63.0 °F 75% 30.06 in 10.0 mi Calm Calm - N/A   Clear
4:53 AM 71.1 °F - 63.0 °F 75% 30.06 in 10.0 mi ENE 3.5 mph - N/A   Scattered Clouds
5:53 AM 71.1 °F - 63.0 °F 75% 30.06 in 10.0 mi Calm Calm - N/A   Clear
6:53 AM 70.0 °F - 63.0 °F 78% 30.07 in 10.0 mi ENE 3.5 mph - N/A   Clear
7:53 AM 72.0 °F - 64.0 °F 76% 30.09 in 10.0 mi ENE 3.5 mph - N/A   Clear
8:53 AM 75.9 °F - 64.9 °F 69% 30.11 in 10.0 mi Calm Calm - N/A   Mostly Cloudy
9:53 AM 78.1 °F - 64.9 °F 64% 30.11 in 10.0 mi Variable 4.6 mph - N/A   Partly Cloudy
10:53 AM 79.0 °F - 64.9 °F 62% 30.09 in 10.0 mi East 5.8 mph - N/A   Scattered Clouds
11:53 AM 79.0 °F - 64.9 °F 62% 30.07 in 10.0 mi ESE 6.9 mph 17.3 mph N/A   Clear
12:53 PM 80.1 °F 81.5 °F 63.0 °F 56% 30.04 in 10.0 mi ENE 9.2 mph - N/A   Mostly Cloudy
1:53 PM 81.0 °F 82.5 °F 64.0 °F 56% 30.01 in 10.0 mi Variable 6.9 mph - N/A   Scattered Clouds
2:53 PM 79.0 °F - 63.0 °F 58% 30.01 in 10.0 mi East 9.2 mph 17.3 mph N/A   Partly Cloudy
3:53 PM 79.0 °F - 60.1 °F 52% 30.00 in 10.0 mi Variable 5.8 mph - N/A   Clear
4:53 PM 77.0 °F - 59.0 °F 54% 30.01 in 10.0 mi Variable 4.6 mph - N/A   Clear
5:53 PM 75.0 °F - 59.0 °F 57% 30.02 in 10.0 mi ENE 5.8 mph - N/A   Clear
6:53 PM 73.9 °F - 61.0 °F 64% 30.03 in 10.0 mi Variable 3.5 mph - N/A   Clear
7:53 PM 72.0 °F - 60.1 °F 66% 30.05 in 10.0 mi Calm Calm - N/A   Clear
8:53 PM 72.0 °F - 61.0 °F 68% 30.05 in 10.0 mi Calm Calm - N/A   Clear
9:53 PM 71.1 °F - 61.0 °F 70% 30.06 in 10.0 mi Calm Calm - N/A   Clear
10:53 PM 71.1 °F - 62.1 °F 73% 30.04 in 10.0 mi Calm Calm - N/A   Clear
11:53 PM 70.0 °F - 62.1 °F 76% 30.03 in 10.0 mi Calm Calm - N/A   Clear